[[{"header":{"parameterUnit":"m.s-1","parameterCategory":1,"la1":30.2991,"la2":30.254,"lo1":-89.0895,"lo2":-89.0444,"dy":0.0017,"dx":0.0017,"nx":28,"ny":28,"refTime":"2025-11-13T03:00:00:Z","depth":0,"parameterNumber":2,"parameterNumberName":"U-component_of_WINDS"},"data":[0,0,0,0,0,0,0,0,0,0,0,0,0,0,0,0,0,0,0,0,0,0,0,0,0,0,0,0,0,0,0,0,0,0,0,0,0,0,0,0,0,0,0,0,0,0,0,0,0,0,0,0,0,0,0,0,0,0,1.0707,1.0708,0,1.0852,1.0853,1.0855,1.0877,1.0876,1.0875,1.0873,1.102,1.1024,1.1029,0,0,0,0,0,0,0,0,0,0,0,0,0,1.0446,1.045,1.0707,1.0708,1.071,1.0851,1.0853,1.0855,1.0878,1.0876,1.0874,1.0873,1.1018,1.1024,1.103,0,0,0,0,0,0,0,0,0,0,0,0,0,1.0572,1.0452,1.0706,1.0738,1.0743,1.0851,1.0854,1.0856,1.0878,1.0876,1.0874,1.0872,1.1016,1.1023,1.1031,1.1117,0,0,1.1054,1.1057,0,0,0,0,0,0,0,0,1.0564,1.0581,1.0732,1.0736,1.0741,1.0845,1.0815,1.0943,1.0878,1.0826,1.0873,1.0871,1.0963,1.0975,1.1006,1.1123,1.113,1.1055,1.1059,1.1063,1.1065,0,0,0,0,0,0,0,1.0556,1.0575,1.0764,1.0734,1.074,1.0744,1.076,1.0839,1.0904,1.0831,1.0833,1.085,1.0965,1.0998,1.1009,1.1132,1.1055,1.1061,1.1066,1.1069,1.1326,1.1328,0,0,0,0,0,0,1.0542,1.0568,1.0759,1.0768,1.0646,1.0751,1.0768,1.0813,1.0903,1.0915,1.0851,1.085,1.0986,1.1001,1.1015,1.112,1.1063,1.107,1.1074,1.1323,1.1326,1.1329,0,0,0,0,0,0,1.0536,1.0558,1.0753,1.0669,1.0694,1.0757,1.0808,1.0817,1.0851,1.0918,1.0929,1.0874,1.0985,1.1004,1.1091,1.1126,1.1073,1.108,1.1321,1.1324,1.1327,1.1332,0,0,0,0,0,0,1.0528,1.0556,1.059,1.0669,1.0698,1.0828,1.081,1.0821,1.0864,1.0864,1.0943,1.0954,1.0985,1.1079,1.1099,1.1135,1.1086,1.1318,1.1322,1.1326,1.1329,1.1335,1.1341,0,0,0,0,0,1.0519,1.0586,1.0592,1.0615,1.0742,1.083,1.0847,1.0883,1.0867,1.0901,1.0944,1.0951,1.1119,1.1088,1.111,1.1149,1.1316,1.1321,1.1326,1.1327,1.1334,1.1341,0,0,0,0,0,0,1.0508,1.0597,1.0605,1.0699,1.0757,1.0834,1.0878,1.0889,1.0952,1.095,1.0991,1.1008,1.1093,1.113,1.1094,1.1236,1.1216,1.1225,1.1209,1.1217,1.1222,1.1211,1.1092,0,0,0,0,0,1.0517,1.0582,1.0656,1.0732,1.0761,1.0814,1.0854,1.0876,1.0938,1.0962,1.1012,1.107,1.1136,1.1179,1.1243,1.1335,1.1352,1.1373,1.1378,1.1383,1.139,1.144,1.145,1.1345,1.1345,1.1345,0,0,1.0536,1.0592,1.0631,1.0731,1.0779,1.0844,1.0835,1.0905,1.0953,1.0973,1.1058,1.1096,1.1164,1.1254,1.1295,1.1287,1.1423,1.1389,1.1392,1.1397,1.1447,1.1456,1.1465,1.1348,1.1348,1.1347,0,0,1.0603,1.0653,1.0721,1.0769,1.0842,1.0877,1.0893,1.0969,1.0995,1.1081,1.1097,1.1155,1.1267,1.1315,1.1354,1.1438,1.1446,1.1458,1.1487,1.1536,1.1544,1.1552,1.1581,1.1591,1.1465,1.1465,1.1465,0,1.0617,1.0717,1.0755,1.0824,1.0867,1.0889,1.0958,1.1002,1.1091,1.112,1.1109,1.1251,1.1298,1.1399,1.1419,1.145,1.1469,1.1449,1.154,1.1548,1.1555,1.1584,1.1595,1.1466,1.1466,1.1466,1.1466,0,1.073,1.0799,1.0846,1.0932,1.098,1.1049,1.1096,1.114,1.1158,1.1194,1.1281,1.1338,1.1414,1.144,1.1458,1.1543,1.1535,1.1532,1.1512,1.1566,1.1593,1.1604,1.1467,1.1467,1.1467,1.1467,0,0,1.0795,1.0901,1.0918,1.0957,1.1038,1.1091,1.116,1.1235,1.1272,1.1332,1.139,1.1485,1.1482,1.1526,1.155,1.1593,1.1654,1.1584,1.1586,1.1594,1.175,1.1751,1.1763,1.1661,1.1663,1.1665,1.1744,0,1.0871,1.0996,1.1032,1.1137,1.12,1.1221,1.1281,1.1336,1.1371,1.1429,1.1468,1.1534,1.1526,1.1552,1.1596,1.1638,1.1686,1.1633,1.1714,1.1716,1.1696,1.1778,1.178,1.1852,1.1755,1.1757,1.1758,0,1.0977,1.104,1.1152,1.1224,1.1252,1.1305,1.1376,1.1432,1.1495,1.1517,1.1566,1.1586,1.1657,1.1633,1.1732,1.1695,1.173,1.1755,1.1759,1.1768,1.174,1.1788,1.1876,1.1887,1.1775,1.1774,1.1773,0,1.1012,1.1125,1.1206,1.1239,1.1325,1.1362,1.14,1.1461,1.1503,1.1565,1.1592,1.1661,1.1699,1.1751,1.1788,1.1768,1.1883,1.1863,1.1903,1.1902,1.1926,1.1924,1.202,1.195,1.1949,1.1949,1.1949,0,1.1093,1.116,1.1223,1.1273,1.1348,1.1388,1.146,1.1499,1.1553,1.1609,1.1631,1.1684,1.173,1.1788,1.1818,1.1894,1.1911,1.193,1.1937,1.1928,1.1926,1.1951,1.1947,1.1952,1.1952,1.1951,1.195,0,1.1145,1.119,1.128,1.1354,1.1374,1.1426,1.1489,1.1538,1.1573,1.1645,1.1664,1.1719,1.1789,1.1832,1.192,1.1939,1.2023,1.2029,1.2002,1.2005,1.2043,1.2038,1.2159,1.2176,1.2094,1.2095,1.2095,0,1.1194,1.1246,1.1326,1.1366,1.1404,1.1468,1.1511,1.1552,1.1596,1.1671,1.171,1.1781,1.184,1.195,1.1998,1.2065,1.2072,1.211,1.2082,1.2071,1.2072,1.2068,1.2073,1.2114,1.2115,1.2115,1.2116,0,1.1275,1.1294,1.1357,1.1427,1.1478,1.1535,1.1591,1.1622,1.1672,1.1721,1.1792,1.1838,1.1928,1.1998,1.2069,1.2107,1.2119,1.2124,1.2137,1.2128,1.211,1.2119,1.2014,1.2121,1.212,1.212,1.212,1.212,1.1326,1.1373,1.1437,1.1505,1.1552,1.1604,1.1653,1.1695,1.1756,1.1833,1.1853,1.1928,1.1988,1.2085,1.2124,1.2182,1.2177,1.2195,1.22,1.2204,1.2204,1.2101,1.2196,1.2196,1.2195,1.2195,1.2195,0,1.1408,1.145,1.1512,1.1591,1.1644,1.1652,1.1715,1.1759,1.1825,1.188,1.1938,1.202,1.2088,1.2141,1.221,1.2246,1.2254,1.2263,1.226,1.2269,1.2206,1.2187,1.2256,1.2256,1.2256,1.2256,1.2256,1.2256,1.1457,1.1536,1.1563,1.1665,1.1706,1.1781,1.1816,1.1863,1.1908,1.1999,1.2055,1.209,1.2144,1.2217,1.2279,1.2293,1.2317,1.2325,1.234,1.228,1.2273,1.2267,1.225,1.233,1.2331,1.2398,1.2399,1.2399]},{"header":{"parameterUnit":"m.s-1","parameterCategory":1,"la1":30.2991,"la2":30.254,"lo1":-89.0895,"lo2":-89.0444,"dy":0.0017,"dx":0.0017,"nx":28,"ny":28,"refTime":"2025-11-13T03:00:00:Z","depth":0,"parameterNumber":3,"parameterNumberName":"V-component_of_WINDS"},"data":[0,0,0,0,0,0,0,0,0,0,0,0,0,0,0,0,0,0,0,0,0,0,0,0,0,0,0,0,0,0,0,0,0,0,0,0,0,0,0,0,0,0,0,0,0,0,0,0,0,0,0,0,0,0,0,0,0,0,3.1495,3.1494,0,3.1472,3.1472,3.1472,3.1368,3.1366,3.1364,3.1361,3.134,3.1342,3.1344,0,0,0,0,0,0,0,0,0,0,0,0,0,3.1449,3.145,3.1495,3.1494,3.1494,3.1472,3.1472,3.1472,3.1369,3.1366,3.1363,3.136,3.134,3.1342,3.1344,0,0,0,0,0,0,0,0,0,0,0,0,0,3.1452,3.1451,3.1495,3.144,3.1435,3.1473,3.1472,3.1472,3.1369,3.1366,3.1362,3.1359,3.1339,3.1341,3.1344,3.1433,0,0,3.1352,3.1353,0,0,0,0,0,0,0,0,3.1452,3.1454,3.1448,3.1444,3.1438,3.1419,3.1448,3.1459,3.137,3.1394,3.1361,3.1357,3.137,3.1369,3.1373,3.1432,3.1431,3.1352,3.1354,3.1355,3.1355,0,0,0,0,0,0,0,3.1452,3.1454,3.1486,3.1448,3.1442,3.1417,3.1413,3.145,3.1403,3.1392,3.1384,3.1383,3.1366,3.1371,3.1372,3.1431,3.1352,3.1354,3.1356,3.1357,3.1561,3.1565,0,0,0,0,0,0,3.1459,3.1455,3.1487,3.1485,3.1436,3.1421,3.1417,3.1429,3.1402,3.1394,3.1386,3.1378,3.1369,3.1369,3.1371,3.1473,3.1355,3.1357,3.1359,3.1557,3.1562,3.1566,0,0,0,0,0,0,3.1459,3.1463,3.1487,3.1468,3.1469,3.1425,3.144,3.1431,3.1435,3.1398,3.1389,3.14,3.1366,3.1367,3.1418,3.1471,3.1358,3.1361,3.1552,3.1558,3.1564,3.1678,0,0,0,0,0,0,3.1458,3.1464,3.1497,3.1469,3.1471,3.1535,3.1443,3.1433,3.144,3.1429,3.1408,3.1401,3.1363,3.1415,3.1421,3.1472,3.1363,3.1547,3.1555,3.1562,3.1669,3.1687,3.1702,0,0,0,0,0,3.1457,3.153,3.1499,3.1503,3.1511,3.1538,3.1539,3.1493,3.1445,3.1478,3.1453,3.1402,3.1464,3.1421,3.1427,3.148,3.1544,3.1553,3.1561,3.1662,3.1683,3.1702,0,0,0,0,0,0,3.1566,3.1526,3.1491,3.1557,3.1552,3.1521,3.1561,3.1517,3.1526,3.1516,3.1458,3.1455,3.1514,3.1502,3.1454,3.1564,3.1495,3.1506,3.157,3.159,3.1606,3.1608,3.1365,0,0,0,0,0,3.1597,3.1622,3.1586,3.1649,3.1648,3.1605,3.1615,3.158,3.1572,3.157,3.1549,3.1544,3.1562,3.1575,3.159,3.1667,3.1661,3.1707,3.1723,3.1737,3.1746,3.1786,3.1805,3.1595,3.1594,3.1594,0,0,3.1663,3.1644,3.1664,3.167,3.1662,3.1689,3.1604,3.1637,3.1656,3.1575,3.1621,3.1606,3.1597,3.1661,3.1688,3.1653,3.1803,3.1748,3.1759,3.1761,3.1797,3.1817,3.1834,3.16,3.1599,3.1598,0,0,3.1797,3.1786,3.1836,3.1829,3.1817,3.1788,3.1801,3.1776,3.1763,3.1808,3.1747,3.1771,3.1803,3.1799,3.1801,3.1933,3.1886,3.194,3.2025,3.2064,3.2081,3.2095,3.2142,3.216,3.1949,3.195,3.195,0,3.1881,3.1919,3.1868,3.1904,3.1909,3.1835,3.1886,3.1882,3.1876,3.1881,3.1842,3.1881,3.1869,3.1931,3.1964,3.1968,3.198,3.1942,3.2083,3.2097,3.2109,3.2153,3.2171,3.1956,3.1955,3.1955,3.1954,0,3.2022,3.205,3.2092,3.2087,3.2096,3.214,3.2096,3.2111,3.2076,3.2051,3.2099,3.2082,3.2092,3.2104,3.207,3.2162,3.214,3.2093,3.2022,3.2137,3.2177,3.2194,3.1966,3.1963,3.1961,3.196,0,0,3.2224,3.219,3.2206,3.2203,3.2184,3.2205,3.2245,3.2254,3.2269,3.2267,3.23,3.2329,3.2285,3.2287,3.2252,3.2286,3.2392,3.2234,3.2233,3.2264,3.2492,3.2527,3.2548,3.2361,3.2364,3.2366,3.2492,0,3.2351,3.2418,3.2373,3.2446,3.2471,3.2402,3.2437,3.243,3.2408,3.2426,3.2402,3.2424,3.2364,3.2365,3.2396,3.2373,3.2437,3.2363,3.2391,3.2392,3.2395,3.2569,3.2606,3.2726,3.2508,3.251,3.2512,0,3.2509,3.2513,3.259,3.2565,3.2574,3.2606,3.2611,3.2629,3.262,3.2601,3.2604,3.256,3.2598,3.2529,3.2581,3.2532,3.2541,3.2531,3.2535,3.2535,3.2459,3.2574,3.2763,3.2781,3.2537,3.2535,3.2533,0,3.2648,3.2673,3.2722,3.2721,3.2694,3.2719,3.2709,3.2695,3.2704,3.2708,3.2713,3.2722,3.2727,3.2735,3.2695,3.2649,3.2753,3.268,3.2739,3.274,3.2763,3.2762,3.2957,3.277,3.277,3.2769,3.2769,0,3.2795,3.2844,3.2784,3.2814,3.2867,3.2815,3.2869,3.2852,3.2841,3.2866,3.2808,3.2833,3.2778,3.2798,3.2767,3.2815,3.2818,3.2805,3.2796,3.281,3.2811,3.2814,3.2805,3.2774,3.2773,3.2772,3.2771,0,3.2959,3.2921,3.2969,3.2939,3.2933,3.2974,3.2948,3.2975,3.2949,3.2983,3.2988,3.2948,3.2968,3.2929,3.2944,3.2923,3.2991,3.2969,3.2994,3.2987,3.3048,3.3042,3.325,3.3275,3.3073,3.3075,3.3077,0,3.3055,3.3091,3.3066,3.3078,3.3071,3.3092,3.31,3.3051,3.3061,3.3053,3.3081,3.3096,3.3106,3.3142,3.3115,3.3127,3.3105,3.3177,3.3106,3.3119,3.3105,3.3104,3.3107,3.3191,3.3194,3.3196,3.3197,0,3.323,3.3209,3.3222,3.3229,3.3239,3.3243,3.3241,3.3255,3.3203,3.3218,3.3237,3.3245,3.3261,3.3277,3.3282,3.3272,3.3227,3.322,3.3234,3.3248,3.3261,3.3255,3.3033,3.3215,3.3213,3.3212,3.3211,3.321,3.3363,3.3391,3.3377,3.3394,3.3387,3.3388,3.3411,3.3388,3.3403,3.3411,3.3382,3.3408,3.3398,3.34,3.3395,3.3416,3.3384,3.3404,3.3409,3.3415,3.3425,3.3258,3.3417,3.3416,3.3416,3.3415,3.3415,0,3.3534,3.3521,3.3537,3.3536,3.355,3.3505,3.3501,3.3515,3.3539,3.3533,3.3543,3.3566,3.3582,3.3556,3.3567,3.3588,3.3568,3.3593,3.3591,3.3589,3.3453,3.3439,3.361,3.361,3.361,3.361,3.361,3.3609,3.3624,3.367,3.3647,3.369,3.3677,3.3702,3.3703,3.3704,3.3698,3.3726,3.3738,3.3721,3.3707,3.3716,3.3729,3.3721,3.3728,3.376,3.3745,3.3618,3.3599,3.3581,3.3568,3.3762,3.3763,3.388,3.3881,3.3882]}]]